Date String (YYYY-MM-DD hh:mm:ss) UTC,Instrument flags,absolute air pressure of the measurement (hPa),sample flow rate (lpm),inlet stack bypass flow (lpm),air temperature of the measurement (°C),ambient temperature measured by the external sensor (°C),aerosol sample conditioner tube jacket temperature (°C),OPC LED temperature (°C),internal box temperature (°C),relative humidity of the measurement (%),span deviation,mass concentration of particles derived from Lorenz-Mie calculation of OPC scattering (μg/m³),mass concentration of particles derived from Lorenz-Mie calculation of OPC scattering (μg/m³),mass concentration of particles derived from Lorenz-Mie calculation of OPC scattering (μg/m³)
DateTimeUTC,F1_M11,P_M11,Q1_M11,Q2_M11,T1_M11,T2_M11,T3_M11,T4_M11,T5_M11,U1_M11,ZSPAN_M11,X2_M11,X0_M11,X1_M11
2023-07-04 13:00:00,SystemResetWarning,0831.7,5.01,000.00,029.6,025.6,000.0,038.0,030.7,19.2,0000.0,0004.41,0008.52,0003.95
2023-07-04 13:01:00,SystemResetWarning,0831.7,5.00,000.00,029.5,026.0,000.0,038.1,030.7,19.2,0000.0,0004.43,0008.42,0003.95
2023-07-04 13:02:00,SystemResetWarning,0831.6,5.00,000.00,029.5,026.3,000.0,038.1,030.8,19.0,0000.0,0004.46,0008.48,0003.96
2023-07-04 13:03:00,SystemResetWarning,0831.6,4.99,000.00,029.4,026.7,000.0,038.1,030.8,19.1,0000.0,0004.46,0009.44,0003.96
2023-07-04 13:04:00,SystemResetWarning,0831.7,5.00,000.00,029.4,027.0,000.0,038.1,030.9,19.4,0000.0,0004.45,0009.47,0003.97
2023-07-04 13:05:00,SystemResetWarning,0831.6,5.00,000.00,029.5,027.3,000.0,038.1,030.9,19.5,0000.0,0004.42,0009.25,0003.96
2023-07-04 13:06:00,SystemResetWarning,0831.6,5.00,000.00,029.5,027.5,000.0,038.1,031.0,19.1,0000.0,0004.39,0008.85,0003.95
2023-07-04 13:07:00,SystemResetWarning,0831.7,5.00,000.00,029.5,027.7,000.0,038.1,031.0,19.5,0000.0,0004.38,0009.60,0003.96
2023-07-04 13:08:00,SystemResetWarning,0831.6,5.00,000.00,029.5,027.9,000.0,038.1,031.1,19.7,0000.0,0004.37,0009.80,0003.97
2023-07-04 13:09:00,SystemResetWarning,0831.6,5.00,000.00,029.5,028.0,000.0,038.1,031.1,19.1,0000.0,0004.33,0010.02,0003.96
2023-07-04 13:10:00,SystemResetWarning,0831.6,5.00,000.00,029.5,028.1,000.0,038.1,031.1,19.1,0000.0,0004.32,0010.06,0003.93
2023-07-04 13:11:00,SystemResetWarning,0831.6,5.00,000.00,029.6,028.2,000.0,038.1,031.2,18.6,0000.0,0004.30,0010.34,0003.92
2023-07-04 13:12:00,SystemResetWarning,0831.6,5.00,000.00,029.6,028.3,000.0,038.1,031.2,18.6,0000.0,0004.29,0010.32,0003.91
2023-07-04 13:13:00,SystemResetWarning,0831.6,5.00,000.00,029.6,028.4,000.0,038.1,031.2,18.4,0000.0,0004.27,0010.40,0003.88
2023-07-04 13:14:00,SystemResetWarning,0831.6,5.00,000.00,029.6,028.4,000.0,038.1,031.3,18.4,0000.0,0004.26,0010.11,0003.86
2023-07-04 13:15:00,SystemResetWarning,0831.6,4.99,000.00,029.7,028.5,000.0,038.2,031.3,18.3,0000.0,0004.24,0010.27,0003.82
2023-07-04 13:16:00,SystemResetWarning,0831.6,4.99,000.00,029.7,028.5,000.0,038.2,031.3,18.3,0000.0,0004.22,0010.38,0003.80
2023-07-04 13:17:00,SystemResetWarning,0831.6,4.99,000.00,029.7,028.6,000.0,038.2,031.3,18.3,0000.0,0004.18,0010.26,0003.77
2023-07-04 13:18:00,SystemResetWarning,0831.6,5.01,000.00,029.7,028.6,000.0,038.2,031.4,18.3,0000.0,0004.16,0009.41,0003.74
2023-07-04 13:19:00,SystemResetWarning,0831.6,5.01,000.00,029.8,028.6,000.0,038.2,031.4,18.3,0000.0,0004.16,0009.13,0003.72
2023-07-04 13:20:00,SystemResetWarning,0831.6,4.99,000.00,029.8,027.1,000.0,038.1,031.2,18.3,0000.0,0004.15,0008.76,0003.69
2023-07-04 13:21:00,SystemResetWarning,0831.5,5.01,000.00,029.7,025.7,000.0,038.0,031.0,18.5,0000.0,0004.13,0008.47,0003.68
2023-07-04 13:22:00,SystemResetWarning,0831.6,5.01,000.00,029.6,025.6,000.0,038.0,030.8,18.6,0000.0,0004.10,0008.06,0003.66
2023-07-04 13:23:00,SystemResetWarning,0831.6,4.99,000.00,029.5,025.9,000.0,038.0,030.7,18.7,0000.0,0004.07,0008.18,0003.64
2023-07-04 13:24:00,SystemResetWarning,0831.6,5.00,000.00,029.4,026.3,000.0,038.0,030.8,18.6,0000.0,0004.03,0008.42,0003.61
2023-07-04 13:25:00,SystemResetWarning,0831.6,5.00,000.00,029.4,026.6,000.0,038.0,030.8,18.5,0000.0,0003.99,0007.83,0003.61
2023-07-04 13:26:00,SystemResetWarning,0831.6,4.99,000.00,029.4,027.0,000.0,038.0,030.9,18.5,0000.0,0003.97,0007.53,0003.60
2023-07-04 13:27:00,SystemResetWarning,0831.6,5.00,000.00,029.4,027.3,000.0,038.0,030.9,18.5,0000.0,0003.97,0007.44,0003.60
2023-07-04 13:28:00,SystemResetWarning,0831.6,5.02,000.00,029.4,027.5,000.0,038.0,031.0,18.6,0000.0,0003.99,0007.51,0003.60
2023-07-04 13:29:00,SystemResetWarning,0831.7,5.00,000.00,029.5,027.7,000.0,038.1,031.0,18.7,0000.0,0004.00,0007.55,0003.60
2023-07-04 13:30:00,SystemResetWarning,0831.7,5.00,000.00,029.5,027.9,000.0,038.1,031.1,18.9,0000.0,0003.98,0007.52,0003.60
2023-07-04 13:31:00,SystemResetWarning,0831.7,5.00,000.00,029.5,028.0,000.0,038.1,031.1,20.7,0000.0,0003.94,0007.42,0003.59
2023-07-04 13:32:00,SystemResetWarning,0832.1,5.00,000.00,029.5,028.1,000.0,038.1,031.1,21.1,0000.0,0003.96,0007.44,0003.60
2023-07-04 13:33:00,SystemResetWarning,0832.1,5.00,000.00,029.6,028.2,000.0,038.1,031.2,19.6,0000.0,0003.95,0007.29,0003.61
2023-07-04 13:34:00,SystemResetWarning,0832.0,5.00,000.00,029.6,028.3,000.0,038.1,031.2,19.9,0000.0,0003.93,0006.96,0003.62
2023-07-04 13:35:00,SystemResetWarning,0831.8,5.00,000.00,029.6,028.4,000.0,038.1,031.2,20.1,0000.0,0003.95,0006.40,0003.63
2023-07-04 13:36:00,SystemResetWarning,0831.9,5.00,000.00,029.6,028.4,000.0,038.1,031.2,21.7,0000.0,0003.97,0006.15,0003.63
2023-07-04 13:37:00,SystemResetWarning,0831.9,5.00,000.00,029.7,028.5,000.0,038.1,031.3,22.0,0000.0,0003.96,0006.07,0003.63
2023-07-04 13:38:00,SystemResetWarning,0831.9,4.99,000.00,029.7,028.5,000.0,038.2,031.3,22.6,0000.0,0003.95,0006.14,0003.64
2023-07-04 13:39:00,SystemResetWarning,0831.9,5.01,000.00,029.7,028.5,000.0,038.2,031.3,20.2,0000.0,0003.93,0006.62,0003.64
2023-07-04 13:40:00,SystemResetWarning,0831.9,5.01,000.00,029.7,028.6,000.0,038.2,031.3,21.0,0000.0,0003.91,0006.59,0003.63
2023-07-04 13:41:00,SystemResetWarning,0831.9,5.00,000.00,029.7,028.6,000.0,038.2,031.3,19.7,0000.0,0003.90,0006.46,0003.63
2023-07-04 13:42:00,SystemResetWarning,0831.9,4.98,000.00,029.8,027.9,000.0,038.2,031.3,19.2,0000.0,0003.89,0006.44,0003.62
2023-07-04 13:43:00,SystemResetWarning,0831.9,5.01,000.00,029.7,026.1,000.0,038.1,031.1,20.2,0000.0,0003.85,0006.24,0003.60
2023-07-04 13:44:00,SystemResetWarning,0831.9,5.01,000.00,029.7,025.6,000.0,038.0,031.0,19.9,0000.0,0003.83,0006.27,0003.58
2023-07-04 13:45:00,SystemResetWarning,0831.9,5.00,000.00,029.5,025.8,000.0,038.0,030.7,21.7,0000.0,0003.82,0006.36,0003.56
2023-07-04 13:46:00,SystemResetWarning,0831.9,4.98,000.00,029.5,026.1,000.0,038.0,030.7,22.7,0000.0,0003.79,0006.35,0003.54
2023-07-04 13:47:00,SystemResetWarning,0832.0,5.01,000.00,029.4,026.5,000.0,038.0,030.8,22.6,0000.0,0003.78,0006.33,0003.54
2023-07-04 13:48:00,SystemResetWarning,0832.0,5.02,000.00,029.4,026.9,000.0,038.0,030.8,22.7,0000.0,0003.78,0006.37,0003.53
2023-07-04 13:49:00,SystemResetWarning,0832.0,5.00,000.00,029.4,027.1,000.0,038.0,030.9,23.6,0000.0,0003.76,0006.49,0003.52
2023-07-04 13:50:00,SystemResetWarning,0832.0,4.99,000.00,029.4,027.4,000.0,038.0,030.9,23.6,0000.0,0003.75,0006.03,0003.51
2023-07-04 13:51:00,SystemResetWarning,0832.0,5.00,000.00,029.4,027.6,000.0,038.1,031.0,23.0,0000.0,0003.75,0006.53,0003.51
2023-07-04 13:52:00,SystemResetWarning,0832.0,5.00,000.00,029.5,027.8,000.0,038.1,031.0,22.8,0000.0,0003.75,0007.55,0003.51
2023-07-04 13:53:00,SystemResetWarning,0832.1,5.00,000.00,029.5,027.9,000.0,038.1,031.0,22.2,0000.0,0003.76,0007.75,0003.52
2023-07-04 13:54:00,SystemResetWarning,0832.1,5.01,000.00,029.5,028.0,000.0,038.1,031.1,21.3,0000.0,0003.76,0007.76,0003.51
2023-07-04 13:55:00,SystemResetWarning,0832.2,5.00,000.00,029.5,028.1,000.0,038.1,031.1,22.6,0000.0,0003.77,0007.81,0003.51
2023-07-04 13:56:00,SystemResetWarning,0832.2,5.00,000.00,029.6,028.2,000.0,038.1,031.1,23.2,0000.0,0003.77,0007.81,0003.52
2023-07-04 13:57:00,SystemResetWarning,0832.2,5.00,000.00,029.6,028.3,000.0,038.1,031.2,24.3,0000.0,0003.77,0007.76,0003.52
2023-07-04 13:58:00,SystemResetWarning,0832.3,5.00,000.00,029.6,028.4,000.0,038.1,031.2,24.4,0000.0,0003.76,0007.74,0003.51
2023-07-04 13:59:00,SystemResetWarning,0832.3,5.00,000.00,029.6,028.4,000.0,038.1,031.3,25.3,0000.0,0003.73,0007.71,0003.50
